Location: Munkebjergskolens Observatorium
(55.3864°N, 10.3987°E)
Time: 03:32:27
(UTC+02:00)

CAS-6 - Pass Details

Date: 04 April 2023
Orbit: 610 x 632 km, 97.9° (Epoch: 31 May)

Event Time Altitude Azimuth Distance (km) Brightness Sun altitude
Exits shadow 21:16:43 - 78° (ENE) 2,127 ? -10.9°
Reaches altitude 10° 21:17:23 10° 71° (ENE) 2,008 ? -11.0°
Maximum altitude 21:19:02 12° 48° (NE) 1,877 ? -11.2°
Drops below altitude 10° 21:20:43 10° 26° (NNE) 2,017 ? -11.4°
Sets 21:24:14 0° 356° (N) 2,936 ? -11.8°
